Flag for Canada Weather past 2 weeks in Saint John, New Brunswick, Canada

Now
39 °F

Overcast.


Feels Like: 36 °F
Forecast: 40 / 60 °F
Wind: 5 mph from Southwest

Location: Saint John

Current Time: Sep 20, 2014 at 5:16:28 AM

Latest Report: Sep 20, 2014 at 4:00 AM


Visibility: 15 mi

Pressure: 30.38 "Hg

Humidity: 81%

Dew point: 34 °F

Location of Saint JohnLocation

Historic Weather in Saint John — Graph

°F

Saint John temperature yesterday

Maximum temperature yesterday: 54 °F (at 3:00 PM)
Minimum temperature yesterday: 28 °F (at 11:00 PM)
Average temperature yesterday: 42 °F

Past Weeks' High & Low Weather Summary

 TemperatureHumidityPressure
High77 °F (Sep 5, 1:00 PM)100% (Sep 5, 6:00 AM)30.49 "Hg (Sep 5, 6:00 AM)
Low28 °F (Sep 19, 11:00 PM)24% (Sep 19, 6:00 PM)29.71 "Hg (Sep 6, 6:00 PM)
Average54 °F79%30.10 "Hg
* Reported Sep 5 4:00 AM — Sep 20 4:00 AM, Saint John, Weather by CustomWeather, © 2014

Note: Actual official high and low records may vary slightly from our data, if they occured in-between our weather recording intervals... More about our weather records

Advertising

Saint John weather history for previous 24 hours

 ConditionsComfort  
Time TempWeatherWind HumidityBarometerVisibility
4:00 AM
Sep 20
39 °FOvercast.5 mph81%30.38 "Hg15 mi
3:00 AM36 °FPassing clouds.No wind87%30.40 "Hg15 mi
2:00 AM34 °FPassing clouds.No wind93%30.40 "Hg15 mi
1:00 AM32 °FPassing clouds.No wind93%30.41 "Hg15 mi
12:00 AM30 °FPassing clouds.No wind93%30.40 "Hg15 mi
11:00 PM
Sep 19
28 °FClear.No wind93%30.40 "Hg15 mi
10:00 PM30 °FClear.No wind93%30.40 "Hg15 mi
9:00 PM30 °FClear.No wind93%30.39 "Hg15 mi
8:00 PM39 °FSunny.No wind70%30.36 "Hg15 mi
7:00 PM50 °FPassing clouds.3 mph37%30.34 "Hg15 mi
6:00 PM54 °FPassing clouds.7 mph24%30.33 "Hg15 mi
5:00 PM54 °FPassing clouds.15 mph26%30.33 "Hg15 mi
4:00 PM54 °FPassing clouds.8 mph30%30.33 "Hg15 mi
3:00 PM54 °FPassing clouds.14 mph30%30.32 "Hg15 mi
2:00 PM52 °FPassing clouds.13 mph35%30.31 "Hg15 mi
1:00 PM50 °FPassing clouds.16 mph40%30.30 "Hg15 mi
12:00 PM48 °FPassing clouds.20 mph43%30.30 "Hg15 mi
11:00 AM46 °FPassing clouds.18 mph43%30.29 "Hg15 mi
10:00 AM45 °FPassing clouds.12 mph53%30.28 "Hg15 mi
9:00 AM39 °FSunny.18 mph65%30.26 "Hg15 mi
8:00 AM37 °FClear.14 mph70%30.24 "Hg15 mi
7:00 AM34 °FClear.9 mph81%30.21 "Hg15 mi
6:00 AM34 °FClear.3 mph81%30.18 "Hg15 mi
5:00 AM34 °FClear.3 mph87%30.16 "Hg15 mi
Weather by CustomWeather, © 2014

See weather overviewHow to use our weather pages